Time,TemperatureF,DewpointF,PressureIn,WindDirection,WindDirectionDegrees,WindSpeedMPH,WindSpeedGustMPH,Humidity,HourlyPrecipIn,Conditions,Clouds,dailyrainin,SoftwareType,DateUTC
2013-04-21 00:01:00,56.4,40.4,30.10,ESE,113,1.0,4.0,55,0.00,,,0.00,LWC2 V0.39 B123,2013-04-21 06:01:00,
2013-04-21 00:06:00,56.7,40.2,30.10,SSE,165,3.0,5.0,54,0.00,,,0.00,LWC2 V0.39 B123,2013-04-21 06:06:00,
2013-04-21 00:11:00,56.8,40.8,30.10,SSE,160,3.0,3.0,55,0.00,,,0.00,LWC2 V0.39 B123,2013-04-21 06:11:00,
2013-04-21 00:16:00,56.9,40.4,30.10,SE,139,2.0,4.0,54,0.00,,,0.00,LWC2 V0.39 B123,2013-04-21 06:16:00,
2013-04-21 00:21:00,56.9,40.9,30.10,SE,136,2.0,3.0,55,0.00,,,0.00,LWC2 V0.39 B123,2013-04-21 06:21:00,
2013-04-21 00:26:00,56.9,40.9,30.10,SE,142,4.0,4.0,55,0.00,,,0.00,LWC2 V0.39 B123,2013-04-21 06:26:00,
2013-04-21 00:31:00,57.0,41.0,30.10,ESE,121,3.0,5.0,55,0.00,,,0.00,LWC2 V0.39 B123,2013-04-21 06:31:00,
2013-04-21 00:36:00,57.1,41.1,30.10,SSE,156,6.0,7.0,55,0.00,,,0.00,LWC2 V0.39 B123,2013-04-21 06:36:00,
2013-04-21 00:41:00,57.2,41.2,30.10,SE,125,2.0,6.0,55,0.00,,,0.00,LWC2 V0.39 B123,2013-04-21 06:41:00,
2013-04-21 00:46:00,57.2,41.2,30.10,SE,143,2.0,8.0,55,0.00,,,0.00,LWC2 V0.39 B123,2013-04-21 06:46:00,
2013-04-21 00:51:00,57.2,41.2,30.11,South,180,4.0,6.0,55,0.00,,,0.00,LWC2 V0.39 B123,2013-04-21 06:51:00,
2013-04-21 00:56:00,57.3,41.3,30.11,ESE,115,2.0,4.0,55,0.00,,,0.00,LWC2 V0.39 B123,2013-04-21 06:56:00,
2013-04-21 01:01:00,57.2,41.2,30.10,SE,135,5.0,6.0,55,0.00,,,0.00,LWC2 V0.39 B123,2013-04-21 07:01:00,
2013-04-21 01:06:00,57.3,40.8,30.11,SSE,153,3.0,5.0,54,0.00,,,0.00,LWC2 V0.39 B123,2013-04-21 07:06:00,
2013-04-21 01:11:00,57.3,41.3,30.11,SE,139,3.0,4.0,55,0.00,,,0.00,LWC2 V0.39 B123,2013-04-21 07:11:00,
2013-04-21 01:16:00,57.3,41.3,30.11,SE,134,3.0,5.0,55,0.00,,,0.00,LWC2 V0.39 B123,2013-04-21 07:16:00,
2013-04-21 01:21:00,57.2,41.6,30.11,SE,136,3.0,4.0,56,0.00,,,0.00,LWC2 V0.39 B123,2013-04-21 07:21:00,
2013-04-21 01:26:00,57.3,41.3,30.11,SSE,159,2.0,7.0,55,0.00,,,0.00,LWC2 V0.39 B123,2013-04-21 07:26:00,
2013-04-21 01:31:00,57.3,41.3,30.11,SSE,161,6.0,6.0,55,0.00,,,0.00,LWC2 V0.39 B123,2013-04-21 07:31:00,
2013-04-21 01:36:00,57.3,41.7,30.10,SE,134,2.0,4.0,56,0.00,,,0.00,LWC2 V0.39 B123,2013-04-21 07:36:00,
2013-04-21 01:41:00,57.3,41.7,30.10,SE,125,3.0,4.0,56,0.00,,,0.00,LWC2 V0.39 B123,2013-04-21 07:41:00,
2013-04-21 01:46:00,57.3,41.3,30.10,SE,141,3.0,8.0,55,0.00,,,0.00,LWC2 V0.39 B123,2013-04-21 07:46:00,
2013-04-21 01:51:00,57.4,41.8,30.10,SSE,150,3.0,7.0,56,0.00,,,0.00,LWC2 V0.39 B123,2013-04-21 07:51:00,
2013-04-21 01:56:00,57.4,41.4,30.10,South,180,4.0,7.0,55,0.00,,,0.00,LWC2 V0.39 B123,2013-04-21 07:56:00,
2013-04-21 02:01:00,57.5,41.9,30.10,SSE,148,1.0,6.0,56,0.00,,,0.00,LWC2 V0.39 B123,2013-04-21 08:01:00,
2013-04-21 02:06:00,57.6,41.6,30.10,South,191,3.0,6.0,55,0.00,,,0.00,LWC2 V0.39 B123,2013-04-21 08:06:00,
2013-04-21 02:11:00,57.6,41.6,30.10,SSW,208,4.0,8.0,55,0.00,,,0.00,LWC2 V0.39 B123,2013-04-21 08:11:00,
2013-04-21 02:16:00,57.7,41.6,30.10,SSE,148,3.0,8.0,55,0.00,,,0.00,LWC2 V0.39 B123,2013-04-21 08:16:00,
2013-04-21 02:21:00,57.6,42.0,30.10,SSE,150,4.0,9.0,56,0.00,,,0.00,LWC2 V0.39 B123,2013-04-21 08:21:00,
2013-04-21 02:26:00,57.6,42.0,30.11,South,177,2.0,7.0,56,0.00,,,0.00,LWC2 V0.39 B123,2013-04-21 08:26:00,
2013-04-21 02:31:00,57.5,41.9,30.11,SSE,147,3.0,5.0,56,0.00,,,0.00,LWC2 V0.39 B123,2013-04-21 08:31:00,
2013-04-21 02:36:00,57.4,42.3,30.11,SSE,158,3.0,6.0,57,0.00,,,0.00,LWC2 V0.39 B123,2013-04-21 08:36:00,
2013-04-21 02:41:00,57.3,42.2,30.11,SE,139,4.0,7.0,57,0.00,,,0.00,LWC2 V0.39 B123,2013-04-21 08:41:00,
2013-04-21 02:46:00,57.3,42.2,30.11,SSE,165,5.0,8.0,57,0.00,,,0.00,LWC2 V0.39 B123,2013-04-21 08:46:00,
2013-04-21 02:51:00,57.2,42.1,30.11,SSE,162,3.0,6.0,57,0.00,,,0.00,LWC2 V0.39 B123,2013-04-21 08:51:00,
2013-04-21 02:56:00,57.3,41.7,30.11,SSE,165,2.0,8.0,56,0.00,,,0.00,LWC2 V0.39 B123,2013-04-21 08:56:00,
2013-04-21 03:01:00,57.2,42.1,30.11,SSE,149,3.0,4.0,57,0.00,,,0.00,LWC2 V0.39 B123,2013-04-21 09:01:00,
2013-04-21 03:06:00,57.1,42.0,30.11,SE,129,6.0,6.0,57,0.00,,,0.00,LWC2 V0.39 B123,2013-04-21 09:06:00,
2013-04-21 03:11:00,57.0,41.9,30.11,SE,124,5.0,9.0,57,0.00,,,0.00,LWC2 V0.39 B123,2013-04-21 09:11:00,
2013-04-21 03:16:00,56.8,42.2,30.12,SSW,194,4.0,7.0,58,0.00,,,0.00,LWC2 V0.39 B123,2013-04-21 09:16:00,
2013-04-21 03:21:00,56.6,42.0,30.12,SE,143,4.0,6.0,58,0.00,,,0.00,LWC2 V0.39 B123,2013-04-21 09:21:00,
2013-04-21 03:26:00,56.5,42.3,30.12,SE,135,2.0,5.0,59,0.00,,,0.00,LWC2 V0.39 B123,2013-04-21 09:26:00,
2013-04-21 03:31:00,56.3,42.2,30.12,SSE,148,5.0,6.0,59,0.00,,,0.00,LWC2 V0.39 B123,2013-04-21 09:31:00,
2013-04-21 03:36:00,56.2,42.1,30.13,SE,138,3.0,5.0,59,0.00,,,0.00,LWC2 V0.39 B123,2013-04-21 09:36:00,
2013-04-21 03:41:00,56.1,42.4,30.13,ESE,117,3.0,6.0,60,0.00,,,0.00,LWC2 V0.39 B123,2013-04-21 09:41:00,
2013-04-21 03:46:00,56.1,42.0,30.13,South,169,2.0,4.0,59,0.00,,,0.00,LWC2 V0.39 B123,2013-04-21 09:46:00,
2013-04-21 03:51:00,55.9,41.8,30.13,South,184,2.0,7.0,59,0.00,,,0.00,LWC2 V0.39 B123,2013-04-21 09:51:00,
2013-04-21 03:56:00,56.0,41.9,30.14,South,184,3.0,6.0,59,0.00,,,0.00,LWC2 V0.39 B123,2013-04-21 09:56:00,
2013-04-21 04:02:00,56.1,42.0,30.14,South,186,2.0,5.0,59,0.00,,,0.00,LWC2 V0.39 B123,2013-04-21 10:02:00,
2013-04-21 04:08:00,56.2,41.6,30.14,SE,128,3.0,6.0,58,0.00,,,0.00,LWC2 V0.39 B123,2013-04-21 10:08:00,
2013-04-21 04:13:00,56.2,41.6,30.13,SSW,198,4.0,6.0,58,0.00,,,0.00,LWC2 V0.39 B123,2013-04-21 10:13:00,
2013-04-21 04:18:00,56.3,41.7,30.14,SE,131,2.0,4.0,58,0.00,,,0.00,LWC2 V0.39 B123,2013-04-21 10:18:00,
2013-04-21 04:23:00,56.3,41.7,30.13,SSW,193,4.0,5.0,58,0.00,,,0.00,LWC2 V0.39 B123,2013-04-21 10:23:00,
2013-04-21 04:28:00,56.3,41.7,30.13,SSE,167,2.0,7.0,58,0.00,,,0.00,LWC2 V0.39 B123,2013-04-21 10:28:00,
2013-04-21 04:33:00,56.3,41.7,30.14,ESE,122,4.0,8.0,58,0.00,,,0.00,LWC2 V0.39 B123,2013-04-21 10:33:00,
2013-04-21 04:38:00,56.3,41.7,30.14,SSE,147,5.0,8.0,58,0.00,,,0.00,LWC2 V0.39 B123,2013-04-21 10:38:00,
2013-04-21 04:43:00,56.2,42.1,30.14,SSW,197,3.0,4.0,59,0.00,,,0.00,LWC2 V0.39 B123,2013-04-21 10:43:00,
2013-04-21 04:48:00,56.1,42.4,30.14,South,184,6.0,6.0,60,0.00,,,0.00,LWC2 V0.39 B123,2013-04-21 10:48:00,
2013-04-21 04:53:00,56.0,42.3,30.14,SSE,148,5.0,9.0,60,0.00,,,0.00,LWC2 V0.39 B123,2013-04-21 10:53:00,
2013-04-21 04:58:00,55.8,42.1,30.14,SSE,166,2.0,6.0,60,0.00,,,0.00,LWC2 V0.39 B123,2013-04-21 10:58:00,
2013-04-21 05:03:00,55.7,42.0,30.14,SSE,152,5.0,12.0,60,0.00,,,0.00,LWC2 V0.39 B123,2013-04-21 11:03:00,
2013-04-21 05:08:00,55.7,42.5,30.14,SSW,195,6.0,10.0,61,0.00,,,0.00,LWC2 V0.39 B123,2013-04-21 11:08:00,
2013-04-21 05:13:00,55.6,42.8,30.14,NNW,333,2.0,8.0,62,0.00,,,0.00,LWC2 V0.39 B123,2013-04-21 11:13:00,
2013-04-21 05:18:00,55.6,42.4,30.14,SSW,206,5.0,11.0,61,0.00,,,0.00,LWC2 V0.39 B123,2013-04-21 11:18:00,
2013-04-21 05:23:00,55.6,42.8,30.13,SE,132,3.0,7.0,62,0.00,,,0.00,LWC2 V0.39 B123,2013-04-21 11:23:00,
2013-04-21 05:28:00,55.7,42.9,30.14,SW,226,6.0,9.0,62,0.00,,,0.00,LWC2 V0.39 B123,2013-04-21 11:28:00,
2013-04-21 05:33:00,55.7,42.9,30.13,South,173,4.0,9.0,62,0.00,,,0.00,LWC2 V0.39 B123,2013-04-21 11:33:00,
2013-04-21 05:38:00,55.6,43.2,30.13,SE,145,5.0,8.0,63,0.00,,,0.00,LWC2 V0.39 B123,2013-04-21 11:38:00,
2013-04-21 05:43:00,55.5,43.1,30.14,South,187,8.0,10.0,63,0.00,,,0.00,LWC2 V0.39 B123,2013-04-21 11:43:00,
2013-04-21 05:48:00,55.3,43.3,30.14,SE,139,1.0,6.0,64,0.00,,,0.00,LWC2 V0.39 B123,2013-04-21 11:48:00,
2013-04-21 05:53:00,55.1,43.5,30.14,SSE,159,3.0,6.0,65,0.00,,,0.00,LWC2 V0.39 B123,2013-04-21 11:53:00,
2013-04-21 05:58:00,55.0,43.5,30.14,SSE,167,3.0,10.0,65,0.00,,,0.00,LWC2 V0.39 B123,2013-04-21 11:58:00,
2013-04-21 06:03:00,54.9,43.4,30.13,South,178,2.0,9.0,65,0.00,,,0.00,LWC2 V0.39 B123,2013-04-21 12:03:00,
2013-04-21 06:08:00,54.7,43.2,30.14,SSE,155,9.0,9.0,65,0.00,,,0.00,LWC2 V0.39 B123,2013-04-21 12:08:00,
2013-04-21 06:14:00,54.6,43.1,30.13,SSE,163,5.0,15.0,65,0.00,,,0.00,LWC2 V0.39 B123,2013-04-21 12:14:00,
2013-04-21 06:19:00,54.5,43.4,30.14,SE,128,2.0,8.0,66,0.00,,,0.00,LWC2 V0.39 B123,2013-04-21 12:19:00,
2013-04-21 06:24:00,54.5,43.4,30.14,SE,146,4.0,5.0,66,0.00,,,0.00,LWC2 V0.39 B123,2013-04-21 12:24:00,
2013-04-21 06:29:00,54.6,43.1,30.14,SE,127,5.0,7.0,65,0.00,,,0.00,LWC2 V0.39 B123,2013-04-21 12:29:00,
2013-04-21 06:34:00,54.8,42.4,30.14,SE,134,4.0,8.0,63,0.00,,,0.00,LWC2 V0.39 B123,2013-04-21 12:34:00,
2013-04-21 06:39:00,54.9,42.5,30.15,SSE,158,4.0,10.0,63,0.00,,,0.00,LWC2 V0.39 B123,2013-04-21 12:39:00,
2013-04-21 06:44:00,54.9,43.0,30.15,SSE,159,2.0,7.0,64,0.00,,,0.00,LWC2 V0.39 B123,2013-04-21 12:44:00,
2013-04-21 06:49:00,54.9,43.0,30.16,SE,146,4.0,8.0,64,0.00,,,0.00,LWC2 V0.39 B123,2013-04-21 12:49:00,
2013-04-21 06:54:00,54.9,43.0,30.16,SSE,158,2.0,7.0,64,0.00,,,0.00,LWC2 V0.39 B123,2013-04-21 12:54:00,
2013-04-21 06:59:00,55.0,43.0,30.17,South,172,4.0,9.0,64,0.00,,,0.00,LWC2 V0.39 B123,2013-04-21 12:59:00,
2013-04-21 07:04:00,55.1,42.7,30.17,ESE,110,3.0,3.0,63,0.00,,,0.00,LWC2 V0.39 B123,2013-04-21 13:04:00,
2013-04-21 07:09:00,55.2,42.8,30.17,SSE,159,3.0,7.0,63,0.00,,,0.00,LWC2 V0.39 B123,2013-04-21 13:09:00,
2013-04-21 07:14:00,55.3,42.9,30.17,SE,132,6.0,9.0,63,0.00,,,0.00,LWC2 V0.39 B123,2013-04-21 13:14:00,
2013-04-21 07:19:00,55.4,43.0,30.17,ESE,111,1.0,3.0,63,0.00,,,0.00,LWC2 V0.39 B123,2013-04-21 13:19:00,
2013-04-21 07:24:00,55.5,43.1,30.16,SE,139,5.0,11.0,63,0.00,,,0.00,LWC2 V0.39 B123,2013-04-21 13:24:00,
2013-04-21 07:29:00,55.6,43.2,30.17,SSE,148,3.0,5.0,63,0.00,,,0.00,LWC2 V0.39 B123,2013-04-21 13:29:00,
2013-04-21 07:34:00,55.5,43.1,30.18,SSE,159,5.0,5.0,63,0.00,,,0.00,LWC2 V0.39 B123,2013-04-21 13:34:00,
2013-04-21 07:39:00,55.5,43.5,30.18,SSE,165,2.0,4.0,64,0.00,,,0.00,LWC2 V0.39 B123,2013-04-21 13:39:00,
2013-04-21 07:44:00,55.5,43.1,30.18,SSW,200,4.0,12.0,63,0.00,,,0.00,LWC2 V0.39 B123,2013-04-21 13:44:00,
2013-04-21 07:49:00,55.6,43.2,30.18,ESE,102,3.0,10.0,63,0.00,,,0.00,LWC2 V0.39 B123,2013-04-21 13:49:00,
2013-04-21 07:54:00,55.7,43.3,30.18,SSE,160,4.0,5.0,63,0.00,,,0.00,LWC2 V0.39 B123,2013-04-21 13:54:00,
2013-04-21 07:59:00,55.9,43.5,30.18,SSE,163,3.0,7.0,63,0.00,,,0.00,LWC2 V0.39 B123,2013-04-21 13:59:00,
2013-04-21 08:04:00,56.1,43.3,30.18,SSE,150,3.0,7.0,62,0.00,,,0.00,LWC2 V0.39 B123,2013-04-21 14:04:00,
2013-04-21 08:09:00,56.4,43.1,30.18,ESE,120,4.0,11.0,61,0.00,,,0.00,LWC2 V0.39 B123,2013-04-21 14:09:00,
2013-04-21 08:14:00,56.8,43.5,30.18,South,177,5.0,10.0,61,0.00,,,0.00,LWC2 V0.39 B123,2013-04-21 14:14:00,
2013-04-21 08:19:00,57.1,43.3,30.18,WSW,248,9.0,10.0,60,0.00,,,0.00,LWC2 V0.39 B123,2013-04-21 14:19:00,
2013-04-21 08:24:00,57.3,43.5,30.19,SE,142,8.0,11.0,60,0.00,,,0.00,LWC2 V0.39 B123,2013-04-21 14:24:00,
2013-04-21 08:29:00,57.4,43.6,30.19,SSE,166,2.0,7.0,60,0.00,,,0.00,LWC2 V0.39 B123,2013-04-21 14:29:00,
2013-04-21 08:34:00,57.8,44.0,30.19,SSW,197,3.0,4.0,60,0.00,,,0.00,LWC2 V0.39 B123,2013-04-21 14:34:00,
2013-04-21 08:39:00,58.3,44.5,30.19,SSW,194,3.0,5.0,60,0.00,,,0.00,LWC2 V0.39 B123,2013-04-21 14:39:00,
2013-04-21 08:44:00,59.0,44.7,30.19,WSW,241,6.0,7.0,59,0.00,,,0.00,LWC2 V0.39 B123,2013-04-21 14:44:00,
2013-04-21 08:49:00,59.6,44.3,30.19,SSE,167,4.0,8.0,57,0.00,,,0.00,LWC2 V0.39 B123,2013-04-21 14:49:00,
2013-04-21 08:54:00,59.7,44.4,30.19,SW,235,6.0,12.0,57,0.00,,,0.00,LWC2 V0.39 B123,2013-04-21 14:54:00,
2013-04-21 08:59:00,59.7,44.0,30.19,SSW,204,6.0,9.0,56,0.00,,,0.00,LWC2 V0.39 B123,2013-04-21 14:59:00,
2013-04-21 09:04:00,59.6,43.9,30.19,SSW,208,3.0,7.0,56,0.00,,,0.00,LWC2 V0.39 B123,2013-04-21 15:04:00,
2013-04-21 09:09:00,59.5,43.3,30.19,West,280,7.0,13.0,55,0.00,,,0.00,LWC2 V0.39 B123,2013-04-21 15:09:00,
2013-04-21 09:15:00,59.8,43.6,30.19,SE,142,6.0,10.0,55,0.00,,,0.00,LWC2 V0.39 B123,2013-04-21 15:15:00,
2013-04-21 09:21:00,60.4,44.6,30.19,ESE,120,11.0,11.0,56,0.00,,,0.00,LWC2 V0.39 B123,2013-04-21 15:21:00,
2013-04-21 09:26:00,60.5,43.8,30.19,SSW,211,5.0,8.0,54,0.00,,,0.00,LWC2 V0.39 B123,2013-04-21 15:26:00,
2013-04-21 09:31:00,60.7,44.0,30.19,WSW,240,7.0,9.0,54,0.00,,,0.00,LWC2 V0.39 B123,2013-04-21 15:31:00,
2013-04-21 09:36:00,60.8,44.0,30.19,South,181,6.0,8.0,54,0.00,,,0.00,LWC2 V0.39 B123,2013-04-21 15:36:00,
2013-04-21 09:41:00,61.1,43.3,30.19,WSW,241,7.0,8.0,52,0.00,,,0.00,LWC2 V0.39 B123,2013-04-21 15:41:00,
2013-04-21 09:46:00,61.1,43.8,30.19,SSW,200,5.0,7.0,53,0.00,,,0.00,LWC2 V0.39 B123,2013-04-21 15:46:00,
2013-04-21 09:51:00,61.1,43.8,30.19,SSW,204,4.0,7.0,53,0.00,,,0.00,LWC2 V0.39 B123,2013-04-21 15:51:00,
2013-04-21 09:56:00,61.6,43.3,30.19,SSW,198,3.0,9.0,51,0.00,,,0.00,LWC2 V0.39 B123,2013-04-21 15:56:00,
2013-04-21 10:01:00,61.9,43.6,30.19,SW,228,8.0,13.0,51,0.00,,,0.00,LWC2 V0.39 B123,2013-04-21 16:01:00,
2013-04-21 10:06:00,62.6,44.2,30.18,SSW,210,5.0,7.0,51,0.00,,,0.00,LWC2 V0.39 B123,2013-04-21 16:06:00,
2013-04-21 10:11:00,63.7,44.7,30.18,SE,127,3.0,11.0,50,0.00,,,0.00,LWC2 V0.39 B123,2013-04-21 16:11:00,
2013-04-21 10:16:00,64.0,45.0,30.18,South,187,7.0,8.0,50,0.00,,,0.00,LWC2 V0.39 B123,2013-04-21 16:16:00,
2013-04-21 10:21:00,64.1,44.0,30.18,SSE,155,9.0,13.0,48,0.00,,,0.00,LWC2 V0.39 B123,2013-04-21 16:21:00,
2013-04-21 10:26:00,64.3,46.3,30.18,SSW,210,6.0,7.0,52,0.00,,,0.00,LWC2 V0.39 B123,2013-04-21 16:26:00,
2013-04-21 10:31:00,64.8,44.6,30.18,SSE,160,8.0,9.0,48,0.00,,,0.00,LWC2 V0.39 B123,2013-04-21 16:31:00,
2013-04-21 10:36:00,64.7,44.6,30.18,SSW,201,7.0,15.0,48,0.00,,,0.00,LWC2 V0.39 B123,2013-04-21 16:36:00,
2013-04-21 10:41:00,64.6,46.1,30.18,SW,224,7.0,7.0,51,0.00,,,0.00,LWC2 V0.39 B123,2013-04-21 16:41:00,
2013-04-21 10:46:00,65.6,45.9,30.17,SW,224,10.0,10.0,49,0.00,,,0.00,LWC2 V0.39 B123,2013-04-21 16:46:00,
2013-04-21 10:51:00,65.6,44.8,30.17,WSW,245,4.0,8.0,47,0.00,,,0.00,LWC2 V0.39 B123,2013-04-21 16:51:00,
2013-04-21 10:56:00,66.6,45.2,30.17,SSW,194,9.0,13.0,46,0.00,,,0.00,LWC2 V0.39 B123,2013-04-21 16:56:00,
2013-04-21 11:01:00,66.9,44.3,30.17,WSW,242,8.0,14.0,44,0.00,,,0.00,LWC2 V0.39 B123,2013-04-21 17:01:00,
2013-04-21 11:06:00,67.6,43.1,30.16,SE,136,10.0,17.0,41,0.00,,,0.00,LWC2 V0.39 B123,2013-04-21 17:06:00,
2013-04-21 11:11:00,67.7,43.8,30.16,SSW,194,7.0,14.0,42,0.00,,,0.00,LWC2 V0.39 B123,2013-04-21 17:11:00,
2013-04-21 11:16:00,67.4,44.1,30.16,WNW,286,9.0,17.0,43,0.00,,,0.00,LWC2 V0.39 B123,2013-04-21 17:16:00,
2013-04-21 11:21:00,67.4,42.9,30.16,South,183,8.0,15.0,41,0.00,,,0.00,LWC2 V0.39 B123,2013-04-21 17:21:00,
2013-04-21 11:26:00,68.1,44.1,30.16,WSW,242,7.0,12.0,42,0.00,,,0.00,LWC2 V0.39 B123,2013-04-21 17:26:00,
2013-04-21 11:31:00,68.0,42.8,30.16,SW,233,12.0,14.0,40,0.00,,,0.00,LWC2 V0.39 B123,2013-04-21 17:31:00,
2013-04-21 11:36:00,67.1,42.6,30.16,SW,231,5.0,14.0,41,0.00,,,0.00,LWC2 V0.39 B123,2013-04-21 17:36:00,
2013-04-21 11:41:00,67.4,43.5,30.15,SW,221,11.0,14.0,42,0.00,,,0.00,LWC2 V0.39 B123,2013-04-21 17:41:00,
2013-04-21 11:46:00,66.7,42.9,30.15,SSE,163,3.0,13.0,42,0.00,,,0.00,LWC2 V0.39 B123,2013-04-21 17:46:00,
2013-04-21 11:51:00,66.9,42.4,30.15,SSE,153,6.0,16.0,41,0.00,,,0.00,LWC2 V0.39 B123,2013-04-21 17:51:00,
2013-04-21 11:56:00,67.3,42.1,30.15,SW,228,13.0,15.0,40,0.00,,,0.00,LWC2 V0.39 B123,2013-04-21 17:56:00,
2013-04-21 12:01:00,67.4,42.2,30.15,SSE,160,10.0,16.0,40,0.00,,,0.00,LWC2 V0.39 B123,2013-04-21 18:01:00,
2013-04-21 12:06:00,68.2,42.9,30.14,SE,132,8.0,14.0,40,0.00,,,0.00,LWC2 V0.39 B123,2013-04-21 18:06:00,
2013-04-21 12:11:00,67.7,43.8,30.14,SW,236,8.0,13.0,42,0.00,,,0.00,LWC2 V0.39 B123,2013-04-21 18:11:00,
2013-04-21 12:16:00,68.2,44.2,30.14,NW,305,3.0,12.0,42,0.00,,,0.00,LWC2 V0.39 B123,2013-04-21 18:16:00,
2013-04-21 12:21:00,68.5,45.1,30.14,SW,216,6.0,7.0,43,0.00,,,0.00,LWC2 V0.39 B123,2013-04-21 18:21:00,
2013-04-21 12:26:00,68.5,44.5,30.14,South,174,6.0,11.0,42,0.00,,,0.00,LWC2 V0.39 B123,2013-04-21 18:26:00,
2013-04-21 12:31:00,68.5,44.5,30.14,SSW,195,8.0,10.0,42,0.00,,,0.00,LWC2 V0.39 B123,2013-04-21 18:31:00,
2013-04-21 12:36:00,68.8,43.5,30.14,SSW,200,3.0,15.0,40,0.00,,,0.00,LWC2 V0.39 B123,2013-04-21 18:36:00,
2013-04-21 12:41:00,69.0,42.3,30.14,South,169,5.0,11.0,38,0.00,,,0.00,LWC2 V0.39 B123,2013-04-21 18:41:00,
2013-04-21 12:46:00,69.0,44.3,30.13,SW,223,3.0,10.0,41,0.00,,,0.00,LWC2 V0.39 B123,2013-04-21 18:46:00,
2013-04-21 12:52:00,69.0,43.7,30.13,SSE,168,4.0,7.0,40,0.00,,,0.00,LWC2 V0.39 B123,2013-04-21 18:52:00,
2013-04-21 12:57:00,69.6,46.1,30.12,West,266,6.0,9.0,43,0.00,,,0.00,LWC2 V0.39 B123,2013-04-21 18:57:00,
2013-04-21 13:02:00,69.5,44.1,30.12,SSW,207,7.0,17.0,40,0.00,,,0.00,LWC2 V0.39 B123,2013-04-21 19:02:00,
2013-04-21 13:07:00,69.3,42.6,30.11,WSW,249,5.0,15.0,38,0.00,,,0.00,LWC2 V0.39 B123,2013-04-21 19:07:00,
2013-04-21 13:12:00,69.5,42.8,30.12,SE,146,3.0,11.0,38,0.00,,,0.00,LWC2 V0.39 B123,2013-04-21 19:12:00,
2013-04-21 13:17:00,69.6,42.2,30.11,SW,225,10.0,14.0,37,0.00,,,0.00,LWC2 V0.39 B123,2013-04-21 19:17:00,
2013-04-21 13:22:00,69.6,42.9,30.11,South,184,5.0,11.0,38,0.00,,,0.00,LWC2 V0.39 B123,2013-04-21 19:22:00,
2013-04-21 13:27:00,70.2,43.4,30.11,South,186,7.0,10.0,38,0.00,,,0.00,LWC2 V0.39 B123,2013-04-21 19:27:00,
2013-04-21 13:32:00,70.1,44.6,30.11,SSW,201,5.0,11.0,40,0.00,,,0.00,LWC2 V0.39 B123,2013-04-21 19:32:00,
2013-04-21 13:37:00,70.1,44.0,30.11,West,281,2.0,13.0,39,0.00,,,0.00,LWC2 V0.39 B123,2013-04-21 19:37:00,
2013-04-21 13:42:00,70.5,44.3,30.10,South,191,7.0,9.0,39,0.00,,,0.00,LWC2 V0.39 B123,2013-04-21 19:42:00,
2013-04-21 13:47:00,70.6,45.1,30.10,SSW,208,7.0,7.0,40,0.00,,,0.00,LWC2 V0.39 B123,2013-04-21 19:47:00,
2013-04-21 13:52:00,70.9,44.7,30.10,West,271,10.0,14.0,39,0.00,,,0.00,LWC2 V0.39 B123,2013-04-21 19:52:00,
2013-04-21 13:57:00,70.7,44.5,30.10,SE,139,2.0,7.0,39,0.00,,,0.00,LWC2 V0.39 B123,2013-04-21 19:57:00,
2013-04-21 14:02:00,70.8,45.3,30.10,SW,217,5.0,9.0,40,0.00,,,0.00,LWC2 V0.39 B123,2013-04-21 20:02:00,
2013-04-21 14:07:00,70.5,44.3,30.10,SSE,160,5.0,8.0,39,0.00,,,0.00,LWC2 V0.39 B123,2013-04-21 20:07:00,
2013-04-21 14:12:00,71.3,46.4,30.09,SSE,162,1.0,5.0,41,0.00,,,0.00,LWC2 V0.39 B123,2013-04-21 20:12:00,
2013-04-21 14:17:00,71.6,45.3,30.09,SSW,205,6.0,8.0,39,0.00,,,0.00,LWC2 V0.39 B123,2013-04-21 20:17:00,
2013-04-21 14:22:00,71.1,42.8,30.09,SW,221,5.0,14.0,36,0.00,,,0.00,LWC2 V0.39 B123,2013-04-21 20:22:00,
2013-04-21 14:27:00,70.9,43.3,30.08,SSW,197,6.0,10.0,37,0.00,,,0.00,LWC2 V0.39 B123,2013-04-21 20:27:00,
2013-04-21 14:32:00,71.3,43.7,30.08,SW,231,6.0,6.0,37,0.00,,,0.00,LWC2 V0.39 B123,2013-04-21 20:32:00,
2013-04-21 14:37:00,71.4,43.0,30.08,SW,222,6.0,9.0,36,0.00,,,0.00,LWC2 V0.39 B123,2013-04-21 20:37:00,
2013-04-21 14:42:00,71.6,43.2,30.08,SW,235,7.0,10.0,36,0.00,,,0.00,LWC2 V0.39 B123,2013-04-21 20:42:00,
2013-04-21 14:47:00,71.6,43.9,30.08,SSW,212,6.0,11.0,37,0.00,,,0.00,LWC2 V0.39 B123,2013-04-21 20:47:00,
2013-04-21 14:52:00,71.2,42.1,30.07,SE,129,5.0,8.0,35,0.00,,,0.00,LWC2 V0.39 B123,2013-04-21 20:52:00,
2013-04-21 14:57:00,71.4,43.8,30.07,SSE,152,2.0,7.0,37,0.00,,,0.00,LWC2 V0.39 B123,2013-04-21 20:57:00,
2013-04-21 15:02:00,71.5,43.1,30.07,SSW,193,4.0,8.0,36,0.00,,,0.00,LWC2 V0.39 B123,2013-04-21 21:02:00,
2013-04-21 15:07:00,71.7,44.0,30.06,WSW,239,6.0,9.0,37,0.00,,,0.00,LWC2 V0.39 B123,2013-04-21 21:07:00,
2013-04-21 15:12:00,72.0,45.0,30.06,SE,132,5.0,11.0,38,0.00,,,0.00,LWC2 V0.39 B123,2013-04-21 21:12:00,
2013-04-21 15:17:00,71.8,44.1,30.06,South,183,7.0,8.0,37,0.00,,,0.00,LWC2 V0.39 B123,2013-04-21 21:17:00,
2013-04-21 15:22:00,72.1,42.2,30.06,SSE,163,5.0,15.0,34,0.00,,,0.00,LWC2 V0.39 B123,2013-04-21 21:22:00,
2013-04-21 15:27:00,71.8,43.4,30.06,South,176,3.0,10.0,36,0.00,,,0.00,LWC2 V0.39 B123,2013-04-21 21:27:00,
2013-04-21 15:32:00,71.8,42.7,30.06,SSW,205,5.0,6.0,35,0.00,,,0.00,LWC2 V0.39 B123,2013-04-21 21:32:00,
2013-04-21 15:37:00,72.1,45.1,30.06,SSW,200,13.0,13.0,38,0.00,,,0.00,LWC2 V0.39 B123,2013-04-21 21:37:00,
2013-04-21 15:42:00,72.3,43.1,30.06,SW,219,4.0,11.0,35,0.00,,,0.00,LWC2 V0.39 B123,2013-04-21 21:42:00,
2013-04-21 15:47:00,72.2,44.5,30.06,SW,215,5.0,5.0,37,0.00,,,0.00,LWC2 V0.39 B123,2013-04-21 21:47:00,
2013-04-21 15:52:00,72.4,43.9,30.06,SW,235,3.0,8.0,36,0.00,,,0.00,LWC2 V0.39 B123,2013-04-21 21:52:00,
2013-04-21 15:57:00,72.3,43.8,30.06,SSW,195,7.0,10.0,36,0.00,,,0.00,LWC2 V0.39 B123,2013-04-21 21:57:00,
2013-04-21 16:02:00,72.2,43.0,30.06,SE,124,4.0,12.0,35,0.00,,,0.00,LWC2 V0.39 B123,2013-04-21 22:02:00,
2013-04-21 16:07:00,72.0,44.3,30.06,SE,130,5.0,11.0,37,0.00,,,0.00,LWC2 V0.39 B123,2013-04-21 22:07:00,
2013-04-21 16:12:00,72.0,44.3,30.06,WNW,290,5.0,11.0,37,0.00,,,0.00,LWC2 V0.39 B123,2013-04-21 22:12:00,
2013-04-21 16:17:00,72.2,43.7,30.06,SSW,200,4.0,10.0,36,0.00,,,0.00,LWC2 V0.39 B123,2013-04-21 22:17:00,
2013-04-21 16:22:00,72.0,43.6,30.06,WSW,243,9.0,11.0,36,0.00,,,0.00,LWC2 V0.39 B123,2013-04-21 22:22:00,
2013-04-21 16:27:00,71.8,43.4,30.05,SW,224,4.0,8.0,36,0.00,,,0.00,LWC2 V0.39 B123,2013-04-21 22:27:00,
2013-04-21 16:32:00,72.0,43.6,30.06,WSW,249,5.0,6.0,36,0.00,,,0.00,LWC2 V0.39 B123,2013-04-21 22:32:00,
2013-04-21 16:37:00,71.7,41.8,30.06,SSW,203,5.0,8.0,34,0.00,,,0.00,LWC2 V0.39 B123,2013-04-21 22:37:00,
2013-04-21 16:42:00,71.8,44.1,30.05,SW,235,4.0,4.0,37,0.00,,,0.00,LWC2 V0.39 B123,2013-04-21 22:42:00,
2013-04-21 16:47:00,72.4,43.9,30.05,ESE,119,5.0,8.0,36,0.00,,,0.00,LWC2 V0.39 B123,2013-04-21 22:47:00,
2013-04-21 16:52:00,72.0,42.8,30.05,SW,225,8.0,12.0,35,0.00,,,0.00,LWC2 V0.39 B123,2013-04-21 22:52:00,
2013-04-21 16:57:00,71.5,41.6,30.05,SSE,157,2.0,9.0,34,0.00,,,0.00,LWC2 V0.39 B123,2013-04-21 22:57:00,
2013-04-21 17:02:00,71.0,42.7,30.05,WSW,248,5.0,11.0,36,0.00,,,0.00,LWC2 V0.39 B123,2013-04-21 23:02:00,
2013-04-21 17:07:00,71.0,43.4,30.05,WSW,242,6.0,7.0,37,0.00,,,0.00,LWC2 V0.39 B123,2013-04-21 23:07:00,
2013-04-21 17:12:00,70.9,41.9,30.05,SW,228,5.0,9.0,35,0.00,,,0.00,LWC2 V0.39 B123,2013-04-21 23:12:00,
2013-04-21 17:17:00,70.7,42.4,30.05,South,191,5.0,11.0,36,0.00,,,0.00,LWC2 V0.39 B123,2013-04-21 23:17:00,
2013-04-21 17:22:00,70.4,42.9,30.05,SSW,197,5.0,7.0,37,0.00,,,0.00,LWC2 V0.39 B123,2013-04-21 23:22:00,
2013-04-21 17:27:00,70.3,42.8,30.05,SSE,167,4.0,5.0,37,0.00,,,0.00,LWC2 V0.39 B123,2013-04-21 23:27:00,
2013-04-21 17:32:00,70.2,42.7,30.05,SW,232,4.0,7.0,37,0.00,,,0.00,LWC2 V0.39 B123,2013-04-21 23:32:00,
2013-04-21 17:37:00,69.9,42.4,30.05,SW,232,8.0,9.0,37,0.00,,,0.00,LWC2 V0.39 B123,2013-04-21 23:37:00,
2013-04-21 17:42:00,69.7,42.3,30.05,SW,235,5.0,10.0,37,0.00,,,0.00,LWC2 V0.39 B123,2013-04-21 23:42:00,
2013-04-21 17:47:00,69.5,42.8,30.05,SSE,160,1.0,6.0,38,0.00,,,0.00,LWC2 V0.39 B123,2013-04-21 23:47:00,
2013-04-21 17:52:00,69.2,41.8,30.06,SSW,207,5.0,10.0,37,0.00,,,0.00,LWC2 V0.39 B123,2013-04-21 23:52:00,
2013-04-21 17:57:00,68.9,41.5,30.06,SW,214,11.0,11.0,37,0.00,,,0.00,LWC2 V0.39 B123,2013-04-21 23:57:00,
2013-04-21 18:02:00,68.8,42.8,30.06,SW,232,4.0,6.0,39,0.00,,,0.00,LWC2 V0.39 B123,2013-04-22 00:02:00,
2013-04-21 18:07:00,68.7,42.1,30.06,South,181,3.0,9.0,38,0.00,,,0.00,LWC2 V0.39 B123,2013-04-22 00:07:00,
2013-04-21 18:12:00,68.4,42.5,30.06,SSE,162,2.0,4.0,39,0.00,,,0.00,LWC2 V0.39 B123,2013-04-22 00:12:00,
2013-04-21 18:17:00,68.1,42.9,30.06,SW,226,3.0,5.0,40,0.00,,,0.00,LWC2 V0.39 B123,2013-04-22 00:17:00,
2013-04-21 18:22:00,67.9,42.0,30.07,SSE,160,4.0,6.0,39,0.00,,,0.00,LWC2 V0.39 B123,2013-04-22 00:22:00,
2013-04-21 18:27:00,67.7,42.5,30.07,South,187,4.0,8.0,40,0.00,,,0.00,LWC2 V0.39 B123,2013-04-22 00:27:00,
2013-04-21 18:32:00,67.3,42.8,30.07,SW,229,5.0,5.0,41,0.00,,,0.00,LWC2 V0.39 B123,2013-04-22 00:32:00,
2013-04-21 18:37:00,67.1,42.6,30.06,South,187,3.0,6.0,41,0.00,,,0.00,LWC2 V0.39 B123,2013-04-22 00:37:00,
2013-04-21 18:42:00,66.8,43.0,30.07,WSW,245,2.0,4.0,42,0.00,,,0.00,LWC2 V0.39 B123,2013-04-22 00:42:00,
2013-04-21 18:47:00,66.5,42.7,30.07,SSE,163,1.0,6.0,42,0.00,,,0.00,LWC2 V0.39 B123,2013-04-22 00:47:00,
2013-04-21 18:52:00,66.2,42.4,30.07,SSE,158,2.0,6.0,42,0.00,,,0.00,LWC2 V0.39 B123,2013-04-22 00:52:00,
2013-04-21 18:57:00,66.0,42.9,30.08,SE,143,0.0,1.0,43,0.00,,,0.00,LWC2 V0.39 B123,2013-04-22 00:57:00,
2013-04-21 19:02:00,65.6,42.5,30.08,SW,214,2.0,4.0,43,0.00,,,0.00,LWC2 V0.39 B123,2013-04-22 01:02:00,
2013-04-21 19:07:00,65.4,42.3,30.08,SSW,193,2.0,5.0,43,0.00,,,0.00,LWC2 V0.39 B123,2013-04-22 01:07:00,
2013-04-21 19:12:00,65.1,42.6,30.08,SSW,193,1.0,3.0,44,0.00,,,0.00,LWC2 V0.39 B123,2013-04-22 01:12:00,
2013-04-21 19:17:00,64.8,42.4,30.08,SSE,167,1.0,3.0,44,0.00,,,0.00,LWC2 V0.39 B123,2013-04-22 01:17:00,
2013-04-21 19:22:00,64.5,42.7,30.08,SE,145,1.0,3.0,45,0.00,,,0.00,LWC2 V0.39 B123,2013-04-22 01:22:00,
2013-04-21 19:27:00,64.3,42.5,30.08,SE,142,0.0,3.0,45,0.00,,,0.00,LWC2 V0.39 B123,2013-04-22 01:27:00,
2013-04-21 19:32:00,63.9,42.7,30.08,SE,139,0.0,2.0,46,0.00,,,0.00,LWC2 V0.39 B123,2013-04-22 01:32:00,
2013-04-21 19:37:00,63.6,42.4,30.08,SE,143,0.0,1.0,46,0.00,,,0.00,LWC2 V0.39 B123,2013-04-22 01:37:00,
2013-04-21 19:42:00,63.3,42.7,30.09,SSE,153,0.0,1.0,47,0.00,,,0.00,LWC2 V0.39 B123,2013-04-22 01:42:00,
2013-04-21 19:47:00,63.0,42.4,30.09,SSE,153,0.0,0.0,47,0.00,,,0.00,LWC2 V0.39 B123,2013-04-22 01:47:00,
2013-04-21 19:52:00,62.8,42.8,30.09,SSE,152,0.0,3.0,48,0.00,,,0.00,LWC2 V0.39 B123,2013-04-22 01:52:00,
2013-04-21 19:57:00,62.6,42.6,30.09,SSE,154,1.0,2.0,48,0.00,,,0.00,LWC2 V0.39 B123,2013-04-22 01:57:00,
2013-04-21 20:02:00,62.5,42.5,30.09,SE,143,1.0,2.0,48,0.00,,,0.00,LWC2 V0.39 B123,2013-04-22 02:02:00,
2013-04-21 20:07:00,62.5,43.1,30.10,SE,139,1.0,2.0,49,0.00,,,0.00,LWC2 V0.39 B123,2013-04-22 02:07:00,
2013-04-21 20:12:00,62.3,42.9,30.10,ESE,104,0.0,2.0,49,0.00,,,0.00,LWC2 V0.39 B123,2013-04-22 02:12:00,
2013-04-21 20:17:00,62.1,42.7,30.10,SSE,159,1.0,2.0,49,0.00,,,0.00,LWC2 V0.39 B123,2013-04-22 02:17:00,
2013-04-21 20:22:00,62.0,43.1,30.10,SE,135,1.0,2.0,50,0.00,,,0.00,LWC2 V0.39 B123,2013-04-22 02:22:00,
2013-04-21 20:27:00,61.8,43.0,30.10,ESE,114,0.0,0.0,50,0.00,,,0.00,LWC2 V0.39 B123,2013-04-22 02:27:00,
2013-04-21 20:32:00,61.5,43.2,30.10,South,170,0.0,2.0,51,0.00,,,0.00,LWC2 V0.39 B123,2013-04-22 02:32:00,
2013-04-21 20:37:00,61.5,43.2,30.10,SW,225,2.0,3.0,51,0.00,,,0.00,LWC2 V0.39 B123,2013-04-22 02:37:00,
2013-04-21 20:42:00,61.6,43.3,30.11,South,183,2.0,2.0,51,0.00,,,0.00,LWC2 V0.39 B123,2013-04-22 02:42:00,
2013-04-21 20:47:00,61.3,43.5,30.11,South,188,1.0,1.0,52,0.00,,,0.00,LWC2 V0.39 B123,2013-04-22 02:47:00,
2013-04-21 20:52:00,61.0,43.7,30.11,NW,326,1.0,3.0,53,0.00,,,0.00,LWC2 V0.39 B123,2013-04-22 02:52:00,
2013-04-21 20:57:00,60.8,43.6,30.11,SSE,165,0.0,0.0,53,0.00,,,0.00,LWC2 V0.39 B123,2013-04-22 02:57:00,
2013-04-21 21:02:00,60.7,43.5,30.11,SW,233,0.0,0.0,53,0.00,,,0.00,LWC2 V0.39 B123,2013-04-22 03:02:00,
2013-04-21 21:07:00,60.4,43.7,30.11,West,278,0.0,2.0,54,0.00,,,0.00,LWC2 V0.39 B123,2013-04-22 03:07:00,
2013-04-21 21:12:00,60.2,44.0,30.12,SSW,197,1.0,3.0,55,0.00,,,0.00,LWC2 V0.39 B123,2013-04-22 03:12:00,
2013-04-21 21:17:00,60.0,43.8,30.12,SSW,194,1.0,1.0,55,0.00,,,0.00,LWC2 V0.39 B123,2013-04-22 03:17:00,
2013-04-21 21:22:00,59.8,44.1,30.12,South,189,0.0,1.0,56,0.00,,,0.00,LWC2 V0.39 B123,2013-04-22 03:22:00,
2013-04-21 21:27:00,59.7,44.0,30.12,SW,221,0.0,1.0,56,0.00,,,0.00,LWC2 V0.39 B123,2013-04-22 03:27:00,
2013-04-21 21:32:00,59.6,44.3,30.12,WNW,283,1.0,3.0,57,0.00,,,0.00,LWC2 V0.39 B123,2013-04-22 03:32:00,
2013-04-21 21:37:00,59.6,44.3,30.12,SW,235,1.0,4.0,57,0.00,,,0.00,LWC2 V0.39 B123,2013-04-22 03:37:00,
2013-04-21 21:42:00,59.9,44.6,30.12,WNW,283,1.0,3.0,57,0.00,,,0.00,LWC2 V0.39 B123,2013-04-22 03:42:00,
2013-04-21 21:47:00,60.0,44.7,30.12,West,267,1.0,4.0,57,0.00,,,0.00,LWC2 V0.39 B123,2013-04-22 03:47:00,
2013-04-21 21:52:00,60.1,44.8,30.12,South,187,1.0,5.0,57,0.00,,,0.00,LWC2 V0.39 B123,2013-04-22 03:52:00,
2013-04-21 21:57:00,60.1,44.8,30.12,WNW,299,1.0,3.0,57,0.00,,,0.00,LWC2 V0.39 B123,2013-04-22 03:57:00,
2013-04-21 22:01:00,60.0,44.7,30.12,SSW,200,0.0,2.0,57,0.00,,,0.00,LWC2 V0.39 B123,2013-04-22 04:01:00,
2013-04-21 22:02:00,60.0,44.7,30.12,WSW,256,0.0,3.0,57,0.00,,,0.00,LWC2 V0.39 B123,2013-04-22 04:02:00,
2013-04-21 22:03:00,59.9,44.6,30.12,SW,236,2.0,3.0,57,0.00,,,0.00,LWC2 V0.39 B123,2013-04-22 04:03:00,
2013-04-21 22:04:00,59.9,44.6,30.12,South,177,1.0,3.0,57,0.00,,,0.00,LWC2 V0.39 B123,2013-04-22 04:04:00,
2013-04-21 22:07:00,59.8,45.0,30.12,WSW,255,0.0,4.0,58,0.00,,,0.00,LWC2 V0.39 B123,2013-04-22 04:07:00,
2013-04-21 22:12:00,59.7,44.9,30.12,WNW,285,1.0,3.0,58,0.00,,,0.00,LWC2 V0.39 B123,2013-04-22 04:12:00,
2013-04-21 22:17:00,59.7,44.9,30.12,WSW,254,0.0,5.0,58,0.00,,,0.00,LWC2 V0.39 B123,2013-04-22 04:17:00,
2013-04-21 22:22:00,59.6,44.8,30.12,SW,221,1.0,4.0,58,0.00,,,0.00,LWC2 V0.39 B123,2013-04-22 04:22:00,
2013-04-21 22:27:00,59.6,44.8,30.11,SSW,197,0.0,3.0,58,0.00,,,0.00,LWC2 V0.39 B123,2013-04-22 04:27:00,
2013-04-21 22:32:00,59.5,45.2,30.12,WSW,241,2.0,3.0,59,0.00,,,0.00,LWC2 V0.39 B123,2013-04-22 04:32:00,
2013-04-21 22:38:00,59.6,45.3,30.11,South,184,2.0,6.0,59,0.00,,,0.00,LWC2 V0.39 B123,2013-04-22 04:38:00,
2013-04-21 22:43:00,59.6,45.3,30.11,SW,231,3.0,5.0,59,0.00,,,0.00,LWC2 V0.39 B123,2013-04-22 04:43:00,
2013-04-21 22:48:00,59.7,45.3,30.11,SSW,203,3.0,5.0,59,0.00,,,0.00,LWC2 V0.39 B123,2013-04-22 04:48:00,
2013-04-21 22:53:00,59.5,45.2,30.11,SW,235,3.0,6.0,59,0.00,,,0.00,LWC2 V0.39 B123,2013-04-22 04:53:00,
2013-04-21 22:58:00,59.3,45.4,30.11,SSW,197,2.0,6.0,60,0.00,,,0.00,LWC2 V0.39 B123,2013-04-22 04:58:00,
2013-04-21 23:03:00,59.3,45.0,30.11,South,183,2.0,5.0,59,0.00,,,0.00,LWC2 V0.39 B123,2013-04-22 05:03:00,
2013-04-21 23:08:00,59.4,45.1,30.11,South,189,3.0,7.0,59,0.00,,,0.00,LWC2 V0.39 B123,2013-04-22 05:08:00,
2013-04-21 23:13:00,59.4,45.1,30.11,South,190,3.0,5.0,59,0.00,,,0.00,LWC2 V0.39 B123,2013-04-22 05:13:00,
2013-04-21 23:18:00,59.4,45.1,30.10,SSE,167,5.0,6.0,59,0.00,,,0.00,LWC2 V0.39 B123,2013-04-22 05:18:00,
2013-04-21 23:23:00,59.4,45.1,30.10,SW,225,3.0,4.0,59,0.00,,,0.00,LWC2 V0.39 B123,2013-04-22 05:23:00,
2013-04-21 23:28:00,59.3,45.0,30.10,SW,226,4.0,5.0,59,0.00,,,0.00,LWC2 V0.39 B123,2013-04-22 05:28:00,
2013-04-21 23:33:00,59.2,45.3,30.10,South,187,2.0,5.0,60,0.00,,,0.00,LWC2 V0.39 B123,2013-04-22 05:33:00,
2013-04-21 23:38:00,59.0,45.1,30.10,South,182,1.0,2.0,60,0.00,,,0.00,LWC2 V0.39 B123,2013-04-22 05:38:00,
2013-04-21 23:43:00,58.7,44.8,30.10,South,183,2.0,3.0,60,0.00,,,0.00,LWC2 V0.39 B123,2013-04-22 05:43:00,
2013-04-21 23:48:00,58.5,45.1,30.10,SW,217,2.0,4.0,61,0.00,,,0.00,LWC2 V0.39 B123,2013-04-22 05:48:00,
2013-04-21 23:53:00,58.2,44.8,30.10,SSE,150,1.0,2.0,61,0.00,,,0.00,LWC2 V0.39 B123,2013-04-22 05:53:00,
2013-04-21 23:58:00,57.9,45.0,30.09,SSE,153,1.0,2.0,62,0.00,,,0.00,LWC2 V0.39 B123,2013-04-22 05:58:00,